• In Deutschland
  • Länderverzeichnis
  • Für 7 Tage
  • Wassertemperatur
  • Satellitenkarten
  • Wetterkarte
  • Widgets
  • user-avatar
    Anmelden

    Stündliche Wetter Landau in der Pfalz

    Heute, 12 Dezember, Dienstag

    Zeit Temperatur Niederschläge Wind Luftdruck Luftfeuchtigkeit
    00:00 +4°C° 0 mm 7 m/S 727 mmHg 78%
    01:00 +3°C° 0 mm 7 m/S 728 mmHg 80%
    02:00 +2°C° 0,1 mm 7 m/S 729 mmHg 79%
    03:00 +2°C° 0,1 mm 7 m/S 731 mmHg 79%
    04:00 0°C° 0,1 mm 7 m/S 732 mmHg 78%
    05:00 0°C° 0 mm 7 m/S 734 mmHg 79%
    06:00 -1°C° 0 mm 6 m/S 736 mmHg 80%
    07:00 0°C° 0 mm 5 m/S 738 mmHg 83%
    08:00 0°C° 0 mm 5 m/S 739 mmHg 83%
    09:00 +1°C° 0 mm 5 m/S 740 mmHg 82%
    10:00 +1°C° 0 mm 5 m/S 741 mmHg 82%
    11:00 +1°C° 0 mm 5 m/S 742 mmHg 81%
    12:00 +1°C° 0 mm 5 m/S 743 mmHg 80%
    13:00 +2°C° 0 mm 5 m/S 743 mmHg 79%
    14:00 +1°C° 0 mm 4 m/S 744 mmHg 79%
    15:00 +1°C° 0 mm 4 m/S 744 mmHg 79%
    16:00 +1°C° 0 mm 4 m/S 745 mmHg 79%
    17:00 +1°C° 0 mm 3 m/S 745 mmHg 81%
    18:00 +1°C° 0 mm 3 m/S 746 mmHg 83%
    19:00 0°C° 0 mm 3 m/S 747 mmHg 86%
    20:00 0°C° 0 mm 3 m/S 747 mmHg 87%
    21:00 0°C° 0 mm 3 m/S 748 mmHg 88%
    22:00 -1°C° 0 mm 3 m/S 748 mmHg 90%
    23:00 -1°C° 0 mm 3 m/S 749 mmHg 90%

    Morgen, 13 Dezember, Mittwoch

    Zeit Temperatur Niederschläge Wind Luftdruck Luftfeuchtigkeit
    00:00 -1°C° 0 mm 3 m/S 749 mmHg 91%
    01:00 -1°C° 0 mm 3 m/S 749 mmHg 91%
    02:00 -1°C° 0 mm 3 m/S 749 mmHg 90%
    03:00 -1°C° 0 mm 3 m/S 748 mmHg 90%
    04:00 -1°C° 0 mm 3 m/S 748 mmHg 89%
    05:00 -1°C° 0 mm 3 m/S 748 mmHg 88%
    06:00 -1°C° 0 mm 3 m/S 748 mmHg 86%
    07:00 -2°C° 0 mm 4 m/S 748 mmHg 85%
    08:00 -1°C° 0 mm 4 m/S 747 mmHg 81%
    09:00 0°C° 0 mm 5 m/S 747 mmHg 78%
    10:00 0°C° 0 mm 5 m/S 746 mmHg 74%
    11:00 +1°C° 0,2 mm 5 m/S 745 mmHg 73%
    12:00 +2°C° 0,2 mm 6 m/S 744 mmHg 71%
    13:00 +3°C° 0,2 mm 6 m/S 743 mmHg 70%
    14:00 +3°C° 0,9 mm 6 m/S 742 mmHg 73%
    15:00 +2°C° 0,9 mm 6 m/S 741 mmHg 76%
    16:00 +2°C° 0,9 mm 6 m/S 740 mmHg 79%
    17:00 +3°C° 0,4 mm 6 m/S 740 mmHg 80%
    18:00 +3°C° 0,4 mm 7 m/S 739 mmHg 80%
    19:00 +4°C° 0,4 mm 7 m/S 738 mmHg 81%
    20:00 +4°C° 0,3 mm 7 m/S 737 mmHg 82%
    21:00 +4°C° 0,3 mm 7 m/S 736 mmHg 83%
    22:00 +5°C° 0,3 mm 7 m/S 735 mmHg 84%
    23:00 +5°C° 0,4 mm 7 m/S 735 mmHg 84%

    übermorgen, 14 Dezember, Donnerstag

    Zeit Temperatur Niederschläge Wind Luftdruck Luftfeuchtigkeit
    00:00 +5°C° 0,4 mm 8 m/S 735 mmHg 84%
    01:00 +6°C° 0,4 mm 8 m/S 735 mmHg 84%
    02:00 +5°C° 0,4 mm 8 m/S 735 mmHg 81%
    03:00 +5°C° 0,4 mm 8 m/S 735 mmHg 77%
    04:00 +4°C° 0,4 mm 8 m/S 735 mmHg 74%
    05:00 +4°C° 0,4 mm 8 m/S 736 mmHg 74%
    06:00 +3°C° 0,4 mm 7 m/S 736 mmHg 75%
    07:00 +3°C° 0,4 mm 6 m/S 737 mmHg 75%
    08:00 +3°C° 0,1 mm 6 m/S 738 mmHg 75%
    09:00 +3°C° 0,1 mm 6 m/S 738 mmHg 75%
    10:00 +3°C° 0,1 mm 5 m/S 738 mmHg 75%
    11:00 +3°C° 0,1 mm 5 m/S 738 mmHg 74%
    12:00 +4°C° 0,1 mm 6 m/S 737 mmHg 73%
    13:00 +5°C° 0,1 mm 6 m/S 736 mmHg 72%
    14:00 +5°C° 0,6 mm 6 m/S 735 mmHg 74%
    15:00 +5°C° 0,6 mm 7 m/S 733 mmHg 77%
    16:00 +5°C° 0,6 mm 7 m/S 732 mmHg 80%
    17:00 +5°C° 2,3 mm 7 m/S 731 mmHg 80%
    18:00 +5°C° 2,3 mm 8 m/S 730 mmHg 81%
    19:00 +5°C° 2,3 mm 8 m/S 729 mmHg 82%
    20:00 +4°C° 1,7 mm 8 m/S 729 mmHg 80%
    21:00 +4°C° 1,7 mm 7 m/S 730 mmHg 79%
    22:00 +3°C° 1,7 mm 7 m/S 730 mmHg 77%
    23:00 +3°C° 0 mm 7 m/S 731 mmHg 78%

    15 Dezember, Freitag

    Zeit Temperatur Niederschläge Wind Luftdruck Luftfeuchtigkeit
    00:00 +2°C° 0 mm 6 m/S 732 mmHg 78%
    01:00 +1°C° 0 mm 6 m/S 733 mmHg 78%
    02:00 +1°C° 0 mm 5 m/S 734 mmHg 79%
    03:00 +1°C° 0 mm 5 m/S 734 mmHg 80%
    04:00 +1°C° 0 mm 4 m/S 734 mmHg 81%
    05:00 +1°C° 0 mm 5 m/S 734 mmHg 81%
    06:00 +1°C° 0 mm 5 m/S 735 mmHg 82%
    07:00 +1°C° 0 mm 5 m/S 735 mmHg 83%
    08:00 +1°C° 0,1 mm 5 m/S 735 mmHg 82%
    09:00 +1°C° 0,1 mm 5 m/S 735 mmHg 82%
    10:00 +1°C° 0,1 mm 5 m/S 736 mmHg 82%
    11:00 +2°C° 0 mm 5 m/S 735 mmHg 80%
    12:00 +2°C° 0 mm 6 m/S 735 mmHg 78%
    13:00 +3°C° 0 mm 6 m/S 735 mmHg 76%
    14:00 +3°C° 0 mm 5 m/S 735 mmHg 77%
    15:00 +3°C° 0 mm 5 m/S 735 mmHg 77%
    16:00 +3°C° 0 mm 4 m/S 735 mmHg 78%
    17:00 +3°C° 0,3 mm 4 m/S 735 mmHg 80%
    18:00 +3°C° 0,3 mm 3 m/S 735 mmHg 82%
    19:00 +3°C° 0,3 mm 3 m/S 735 mmHg 83%
    20:00 +3°C° 0,2 mm 3 m/S 736 mmHg 85%
    21:00 +3°C° 0,2 mm 3 m/S 737 mmHg 86%
    22:00 +1°C° 0,2 mm 4 m/S 738 mmHg 88%
    23:00 +1°C° 0,1 mm 4 m/S 738 mmHg 88%

    16 Dezember, Samstag

    Zeit Temperatur Niederschläge Wind Luftdruck Luftfeuchtigkeit
    00:00 0°C° 0,1 mm 4 m/S 739 mmHg 88%
    01:00 +1°C° 0,1 mm 3 m/S 739 mmHg 89%
    02:00 0°C° 0 mm 3 m/S 740 mmHg 90%
    03:00 0°C° 0 mm 3 m/S 741 mmHg 91%
    04:00 -1°C° 0 mm 2 m/S 741 mmHg 91%
    05:00 -1°C° 0 mm 2 m/S 742 mmHg 92%
    06:00 -1°C° 0 mm 2 m/S 742 mmHg 92%
    07:00 -1°C° 0 mm 2 m/S 743 mmHg 92%
    08:00 +1°C° 0 mm 2 m/S 743 mmHg 90%
    09:00 0°C° 0 mm 3 m/S 744 mmHg 89%
    10:00 0°C° 0 mm 3 m/S 744 mmHg 88%
    11:00 +1°C° 0 mm 3 m/S 745 mmHg 86%
    12:00 +1°C° 0 mm 4 m/S 745 mmHg 83%
    13:00 +1°C° 0 mm 4 m/S 745 mmHg 81%
    14:00 +1°C° 0 mm 4 m/S 745 mmHg 82%
    15:00 +2°C° 0 mm 3 m/S 746 mmHg 82%
    16:00 +2°C° 0 mm 3 m/S 746 mmHg 82%
    17:00 +1°C° 0 mm 3 m/S 746 mmHg 84%
    18:00 +1°C° 0 mm 3 m/S 747 mmHg 85%
    19:00 +1°C° 0 mm 3 m/S 747 mmHg 87%
    20:00 0°C° 0,1 mm 3 m/S 748 mmHg 88%
    21:00 0°C° 0 mm 3 m/S 748 mmHg 89%
    22:00 0°C° 0 mm 3 m/S 749 mmHg 90%
    23:00 0°C° 0 mm 3 m/S 749 mmHg 90%

    17 Dezember, Sonntag

    Zeit Temperatur Niederschläge Wind Luftdruck Luftfeuchtigkeit
    00:00 -1°C° 0 mm 2 m/S 749 mmHg 91%
    01:00 -1°C° 0 mm 2 m/S 750 mmHg 92%
    02:00 -1°C° 0 mm 2 m/S 750 mmHg 92%
    03:00 -1°C° 0 mm 2 m/S 750 mmHg 92%
    04:00 -1°C° 0 mm 2 m/S 750 mmHg 91%
    05:00 -1°C° 0 mm 2 m/S 751 mmHg 91%
    06:00 -1°C° 0 mm 2 m/S 751 mmHg 91%
    07:00 -1°C° 0 mm 2 m/S 752 mmHg 90%
    08:00 +1°C° 0 mm 2 m/S 752 mmHg 89%
    09:00 0°C° 0 mm 3 m/S 753 mmHg 87%
    10:00 0°C° 0 mm 3 m/S 753 mmHg 86%
    11:00 +1°C° 0,1 mm 3 m/S 753 mmHg 84%
    12:00 +1°C° 0,1 mm 3 m/S 754 mmHg 83%
    13:00 +1°C° 0,1 mm 3 m/S 754 mmHg 81%
    14:00 +1°C° 0 mm 3 m/S 754 mmHg 82%
    15:00 +2°C° 0 mm 2 m/S 754 mmHg 83%
    16:00 +2°C° 0 mm 2 m/S 754 mmHg 85%
    17:00 +2°C° 0 mm 2 m/S 755 mmHg 86%
    18:00 +1°C° 0 mm 2 m/S 755 mmHg 88%
    19:00 +1°C° 0 mm 2 m/S 756 mmHg 89%
    20:00 -1°C° 0 mm 2 m/S 756 mmHg 90%
    21:00 -1°C° 0 mm 2 m/S 756 mmHg 91%
    22:00 0°C° 0 mm 1 m/S 757 mmHg 92%
    23:00 0°C° 0 mm 1 m/S 757 mmHg 92%
    Mehr zeigen